Location: Harwich
(41.7160°N, 69.9939°W)
Time: 02:54:03
(UTC+02:00)

AO-73 - Pass Details

Date: 21 September 2024
Orbit: 548 x 615 km, 97.7° (Epoch: 10 October)

Event Time Altitude Azimuth Distance (km) Brightness Sun altitude
Rises 09:57:29 0° 10° (N) 2,781 ? -27.6°
Reaches altitude 10° 09:59:39 10° 8° (N) 1,868 ? -27.2°
Enters shadow 10:01:47 30° 3° (N) 1,023 ? -26.9°
